AirNav   Pilot Hours Calculator
 
 1464 users online  

00OI Miami Valley Hospital Heliport
Dayton, Ohio, USA

GOING TO DAYTON?


FAA INFORMATION EFFECTIVE 17 JUNE 2021

Location

FAA Identifier: 00OI
Lat/Long: 39-44-41.7082N 084-11-14.1406W
39-44.695137N 084-11.235677W
39.7449189,-84.1872613
(estimated)
Elevation: 847 ft. / 258 m (estimated)
Variation: 06W (2015)
Time zone: UTC -4 (UTC -5 during Standard Time)
Zip code: 45409

Heliport Operations

Heliport use: Private use, MEDICAL USE.
Activation date: 12/1983
Control tower: no
ARTCC: INDIANAPOLIS CENTER
FSS: DAYTON FLIGHT SERVICE STATION
Attendance: CONTINUOUS
Wind indicator: yes
Segmented circle: no
Beacon: white-green-yellow (heliport)
Operates sunset to sunrise.

Heliport Communications

UNICOM: 123.05
WX ASOS at MGY (10 nm S): 118.375 (937-885-2171)
WX AWOS-3 at I19 (10 nm E): 118.525 (937-372-4668)
WX ASOS at DAY (10 nm N): PHONE 937-415-6819
WX AWOS-3 at MWO (16 nm SW): 120.025 (513-422-3505)
WX AWOS-3PT at SGH (17 nm E): 134.975 (937-324-4532)
WX AWOS-3 at I68 (17 nm S): 120.55 (513-934-5500)

Nearby radio navigation aids

VOR radial/distance  VOR name  Freq  Var
DQNr150/18.9DAYTON VOR/DME114.5001W
MXQr321/26.0MIDWEST VOR/DME112.9004W
RODr196/33.2ROSEWOOD VORTAC117.5005W

 
NDB name  Hdg/Dist  Freq  Var  ID
BRUNY138/9.231506WAT .- -
ONIDA036/11.822304WMW -- .--
HOOK FIELD043/19.023904WHKF .... -.- ..-.
COURT HOUSE289/37.741406WCSS -.-. ... ...

Heliport Services

Runway Information

Helipad H1

Dimensions: 42 x 42 ft. / 13 x 13 m
Surface: concrete
ROOFTOP.
Latitude: 39-44.695137N
Longitude: 084-11.235677W
Elevation: 847.0 ft.
Traffic pattern: leftleft

Heliport Ownership and Management from official FAA records

Ownership: Privately-owned
Owner: MIAMI VALLEY HOSPITAL
1 WYOMING ST
DAYTON, OH 45409-2722
Phone 513-220-2221
Manager: CANDACE SKIDMORE
1 WYOMING ST
DAYTON, OH 45409-2722
Phone 513-220-2044
ADNL CTC: BETH CALCIDISE 937-208-4347 KEITH SHIVERS 7309 WATERWAY DR WAYNESVILLE OH 45068.

Heliport Operational Statistics

Aircraft based on the field: 1
Helicopters: 1
    

Additional Remarks

FOR CD CTC COLUMBUS APCH AT 614-338-8537

Instrument Procedures

There are no published instrument procedures at 00OI.

Some nearby airports with instrument procedures:

KFFO - Wright-Patterson Air Force Base (8 nm NE)
KMGY - Dayton-Wright Brothers Airport (10 nm S)
I19 - Greene County-Lewis A Jackson Regional Airport (10 nm E)
KDAY - James M Cox Dayton International Airport (10 nm N)
3I7 - Dayton-Phillipsburg Airport (14 nm NW)
KMWO - Middletown Regional Airport/Hook Field (16 nm SW)
KSGH - Springfield-Beckley Municipal Airport (17 nm E)
I68 - Warren County Airport/John Lane Field (17 nm S)
 
Loc | Ops | Rwys | IFR | FBO | Links
Com | Nav | Svcs | Stats | Notes
Area around 00OI (Miami Valley Hospital Heliport)
 
Road maps at: MapQuest Bing Google
 
Aerial photo
No photo
 
Sectional chart

 
Airport distance calculator
Flying to Miami Valley Hospital Heliport? Find the distance to fly.

From to 00OI

Sunrise and sunset
Times for 24-Jun-2021
 Local
(UTC-4)
 Zulu
(UTC)
Morning civil twilight05:3809:38
Sunrise06:1110:11
Sunset21:0801:08
Evening civil twilight21:4001:40

Current date and time
Zulu (UTC)  24-Jun-2021 15:04:08
Local (UTC-4)  24-Jun-2021 11:04:08
 
METAR
KFFO 
8nm NE 
241456Z AUTO 17009KT 10SM CLR 25/14 A3016 RMK AO2 SLP211 T02500138 58001
KMGY 
9nm S 
241453Z AUTO 18006KT 10SM CLR 24/15 A3016 RMK AO2 SLP207 T02440150 50002
KDAY 
9nm N 
241456Z 20009KT 10SM SCT250 25/13 A3016 RMK AO2 SLP207 T02500128 50000
KMWO 
16nm SW 
241455Z AUTO 21006KT 10SM CLR 25/16 A3017 RMK AO2 T02480159
KI68 
17nm S 
241455Z AUTO 18007KT 10SM CLR 24/16 A3018 RMK AO1 6//// T02420157
KSGH 
18nm E 
241456Z AUTO 20005KT 10SM CLR 25/16 A3017 RMK AO2 SLP213 T02500156 50000
TAF
KFFO 
8nm NE 
241100Z 2411/2517 15009KT 9999 FEW100 SCT250 QNH3014INS BECMG 2415/2416 19012G20KT 9999 FEW250 QNH3009INS BECMG 2422/2423 18009KT 9999 FEW250 510102 QNH3007INS BECMG 2514/2515 20020G30KT 9999 SCT040 BKN250 520003 QNH3006INS TX31/2421Z TN14/2411Z
KDAY 
9nm N 
241130Z 2412/2512 16008KT P6SM FEW120 FM241400 19010KT P6SM SCT250 FM241900 19012KT P6SM FEW045 FM242300 18008KT P6SM SCT080 FM250600 17010KT P6SM BKN120
NOTAMs
Click for the latest NOTAMs
NOTAMs are issued by the DoD/FAA and will open in a separate window not controlled by AirNav.

 

 
 

Would you like to see your business listed on this page?

 If your business provides an interesting product or service to pilots, flight crews, aircraft, or users of the Miami Valley Hospital Heliport, you should consider listing it here.  To start the listing process, click on the button below
 
Add a business
 

Other Pages about Miami Valley Hospital Heliport

Update a link
 
Copyright © AirNav, LLC. All rights reserved. Privacy Policy  Contact